Regional Weather Roundup
Issued by NWS

Home | Current Version | Previous Version | Graphics & Text | Print | Product List | Glossary On
Versions: 1 2 3 4 5 6 7 8 9 10 11 12 13 14 15 16 17 18 19 20 21 22 23 24 25 26 27 28 29 30 31 32 33 34 35 36 37 38 39 40 41 42 43 44 45 46 47 48 49 50
000
ASUS45 KABQ 241810
RWRNM
NEW MEXICO REGIONAL WEATHER ROUNDUP
NATIONAL WEATHER SERVICE ALBUQUERQUE NM
1200 PM MDT THU MAY 24 2018

NOTE: "FAIR" MEANS FEW OR NO CLOUDS BELOW 12,000 FEET AGL WITH NO
       SIGNIFICANT WEATHER OR OBSTRUCTIONS TO VISION.

      THIS PRODUCT IS RELEASED AS TWO VERSIONS.  ONE VERSION NEAR
      THE TOP OF THE HOUR CONTAINING PRELIMINARY DATA FROM ALBUQUERQUE
      AND OTHER STATIONS.  A FINAL VERSION WITH ADDITIONAL DATA IS
      ISSUED ABOUT 10 MINUTES AFTER THE HOUR.

NMZ501-503-504-510>518-241900-
NORTHWEST PLATEAU/NORTHCENTRAL MOUNTAINS

CITY           SKY/WX    TMP DP  RH WIND       PRES   REMARKS
FARMINGTON     FAIR      77  15   9 VRB3      30.18F
6HR MIN TEMP:  43; 6HR MAX TEMP:  77;

LOS ALAMOS     FAIR      73  29  20 S9G16     30.31F
SANTA FE       FAIR      78  25  14 SW9       30.26F
6HR MIN TEMP:  46; 6HR MAX TEMP:  78;

TAOS           FAIR      74  18  12 SW13G21   30.31F
ANGEL FIRE     FAIR      65  29  25 W17G25    30.37S

$$
NMZ402-403-502-505>509-241900-
WESTCENTRAL MOUNTAINS/SOUTHWEST MOUNTAINS

CITY           SKY/WX    TMP DP  RH WIND       PRES   REMARKS
GALLUP         FAIR      74  19  12 SW16G26   30.28S
6HR MIN TEMP:  37; 6HR MAX TEMP:  76;

GRANTS         FAIR      77  20  12 W12G17    30.28F
SILVER CITY    FAIR      80  16   9 E3G9      30.23S

$$
NMZ407-409-411-412-241900-
SOUTHERN DESERTS

CITY           SKY/WX    TMP DP  RH WIND       PRES   REMARKS
DEMING         FAIR      86  23  10 SE7       30.16F
6HR MIN TEMP:  53; 6HR MAX TEMP:  86;

LAS CRUCES     FAIR      86  23  10 NW5       30.16F
HOLLOMAN AFB   FAIR      89  44  20 W10       30.16F
ALAMOGORDO     FAIR      84  45  24 SE3       30.15F
T OR C         FAIR      85  23  10 VRB6      30.18F
6HR MIN TEMP:  57; 6HR MAX TEMP:  86;


$$
NMZ519>523-241900-
CENTRAL VALLEYS/CENTRAL HIGHLANDS

CITY           SKY/WX    TMP DP  RH WIND       PRES   REMARKS
ALBUQUERQUE    FAIR      81  27  14 VRB3      30.21F
6HR MIN TEMP:  55; 6HR MAX TEMP:  81;

DOUBLE EAGLE   MOSUNNY   77  25  14 VRB6      30.25F
MORIARTY ARPT  FAIR      79  28  15 SE5       30.27F
6HR MIN TEMP:  44; 6HR MAX TEMP:  79;

CLINES CORNERS FAIR      75  28  17 W9        30.32S
6HR MIN TEMP:  46; 6HR MAX TEMP:  75;

BELEN          FAIR      80  21  11 CALM      30.21F
6HR MIN TEMP:  57; 6HR MAX TEMP:  80;

SOCORRO        FAIR      81  27  14 CALM      30.19S
6HR MIN TEMP:  55; 6HR MAX TEMP:  81;


$$
NMZ524>526-539-540-241900-
SOUTHCENTRAL MOUNTAINS

CITY           SKY/WX    TMP DP  RH WIND       PRES   REMARKS
RUIDOSO        FAIR      77  28  16 SW13      30.31F

$$
NMZ527>531-241900-
NORTHEAST HIGHLANDS/NORTHEAST PLAINS

CITY           SKY/WX    TMP DP  RH WIND       PRES   REMARKS
LAS VEGAS      FAIR      76  34  21 S13G21    30.26F
6HR MIN TEMP:  44; 6HR MAX TEMP:  76;

RATON          FAIR      73  49  42 S9        30.20F
6HR MIN TEMP:  50; 6HR MAX TEMP:  73;

CLAYTON        FAIR      75  55  49 SW16G26   30.14F
6HR MIN TEMP:  53; 6HR MAX TEMP:  75;


$$
NMZ532>537-241900-
EASTCENTRAL PLAINS

CITY           SKY/WX    TMP DP  RH WIND       PRES   REMARKS
SANTA ROSA     FAIR      82  37  20 W8G18     30.16F
TUCUMCARI      FAIR      80  54  40 SW10G20   30.11F
6HR MIN TEMP:  54; 6HR MAX TEMP:  81;

CANNON AFB     FAIR      78  60  53 SW15      30.17F
6HR MIN TEMP:  57; 6HR MAX TEMP:  78;

CLOVIS AIRPORT FAIR      79  59  50 SW14      30.17F

$$
NMZ028-029-538-241900-
SOUTHEAST PLAINS

CITY           SKY/WX    TMP DP  RH WIND       PRES   REMARKS
ROSWELL        FAIR      81  54  39 CALM      30.13F
6HR MIN TEMP:  56; 6HR MAX TEMP:  81;

ARTESIA        FAIR      81  54  39 SE10      30.13F
CARLSBAD       FAIR      80  56  43 S7        30.11F
6HR MIN TEMP:  55; 6HR MAX TEMP:  81;

HOBBS          SUNNY     81  59  47 SE9       30.15S


$$



USA.gov is the U.S. government's official web portal to all federal, state and local government web resources and services.